CZ-6A DEB, 60213

Orbit data source: Space-Track

CZ-6A DEB, 60213 is space debris in SSO originally from a launch on Thu, 04 Jul 2024 UTC launched from the Taiyaun Space Center, China (TSC). Debris objects in space refer to the collection of defunct objects orbiting the Earth. Examples of debris include non-operational satellites, rocket bodies, and fragments generated from explosions, collisions, or faulty payload assembly.

Loading next visibility...
Identifier
60213, 2024-126C
Orbit
SSO
Last TLE update
6 hours ago
Origin
Manufacturer
SAST
Mission
Spacecraft
Bus & Motor
Unknown
Mass
~50 kg wet, ~50 kg dry
Launch date (UTC)
2024-07-04 (1 year ago)
Launch vehicle
Unknown
Launch site
Taiyaun Space Center, China (TSC)
Object type
Payload
Rocket body
Debris
Shape & HBR
Unknown
Radar Cross Section
Large (>1 m²)

Expand to show TLE details & history

TLE from 6 hours ago
0 CZ-6A DEB
1 60213U 24126C   25183.58712078  .00008467  00000-0  68019-3 0  9996
2 60213  97.8257 194.5710 0004620  56.8813 303.2853 15.00283125 54147
Epoch: 2025-07-02T14:05Z
TLE epoch observation values (Epoch: 2025-07-02T14:05:27.235Z)
Latitude
-0.00002°
Longitude
62.34144°
Altitude
567.314 km
Speed
7.578 km/s
True Right ascension
12h 58m 17s
True Declination
0° 00' 00"
Sunlit
Object was in daylight at epoch
Visualization orbit readout
Latitude
2.2161°
Longitude
62.30712°
Altitude
566.896 km
Speed
7.579 km/s
Apparent Right ascension
15h 41m 49s
Apparent Declination
-28° 16' 49"
Sunlit
Object is in daylight
Visualization observer readout
Local Sidereal Time
08:14:15
Azimuth
100.585° ESE
Elevation
-33.769°
Doppler factor
1
Orbital elements
Apogee altitude
566.24 km
Perigee altitude
559.826 km
Semi-major axis
6,941.17 km
Eccentricity
0.00046
Inclination
97.8257°
RAAN
194.571°
Arg. of periapsis
56.8813°
True anomaly
Unknown
Mean anomaly
303.2853°
Eccentric anomaly
Unknown
Mean motion
3.75313 °/min
Orbital period
95.92 mins
BSTAR
0.00068019
Loading maneuver chart data...
Loading SW <> Apogee altitude chart data...
Loading historical data...
Loading historical data...
Loading historical data...
Loading historical data...
Loading historical data...
Loading historical data...
Loading historical data...
Other satellites on launch #126 in the year 2024 (2024-07-04 UTC)

CZ-6A DEB Visibility forecast

Observer location: undefined°, undefined°

Span
Click to sort rows by Start time (UTC) header in descending order
Start Az.
Max El. time (UTC)
Max El. Az.
Max El.
End time (UTC)
End Az.
4 mins2025-07-02 23:51:12.725Z105.377° ESE2025-07-02 23:53:12.725Z69.493° E18.824°2025-07-02 23:55:12.725Z32.455° NE
5 mins2025-07-03 01:26:12.725Z218.521° SW2025-07-03 01:28:12.725Z265.692° W26.05°2025-07-03 01:31:12.725Z321.408° NNW
5 mins2025-07-03 13:05:12.725Z43.618° NE2025-07-03 13:07:12.725Z86.938° E28.596°2025-07-03 13:10:12.725Z155.61° SSE
|